When you browse on this site, cookies collect data to enhance your experience and personalize the content and advertising you see.
Visit our Privacy Policy to learn more. By continuing to use the site, you agree to this use of cookies and data.
  • In Romania
  • List of Countries
  • For 7 days
  • Water Temperature
  • Satellite Maps
  • Weather Map
  • Weather Widgets
  • user-avatar
    Login

    Hourly Weather Dunaevka

    Today, 21 January, Monday

    Time Temperature Precipitation Wind Pressure Humidity
    00:00 +1°C° 0 mm 2 mps 734 mmHg 90%
    01:00 +1°C° 0 mm 2 mps 734 mmHg 90%
    02:00 +1°C° 0 mm 2 mps 734 mmHg 89%
    03:00 +1°C° 0 mm 2 mps 734 mmHg 88%
    04:00 +1°C° 0 mm 2 mps 734 mmHg 87%
    05:00 +1°C° 0 mm 2 mps 733 mmHg 86%
    06:00 0°C° 0 mm 3 mps 733 mmHg 85%
    07:00 0°C° 0 mm 3 mps 733 mmHg 82%
    08:00 0°C° 0 mm 3 mps 732 mmHg 79%
    09:00 +1°C° 0 mm 3 mps 732 mmHg 76%
    10:00 +2°C° 0 mm 3 mps 732 mmHg 71%
    11:00 +3°C° 0 mm 3 mps 731 mmHg 66%
    12:00 +4°C° 0 mm 3 mps 730 mmHg 60%
    13:00 +5°C° 0 mm 3 mps 730 mmHg 60%
    14:00 +5°C° 0 mm 3 mps 729 mmHg 60%
    15:00 +5°C° 0 mm 3 mps 729 mmHg 60%
    16:00 +5°C° 0 mm 2 mps 729 mmHg 64%
    17:00 +4°C° 0 mm 2 mps 729 mmHg 68%
    18:00 +4°C° 0 mm 1 mps 729 mmHg 72%
    19:00 +4°C° 0 mm 1 mps 729 mmHg 69%
    20:00 +4°C° 0 mm 1 mps 729 mmHg 67%
    21:00 +5°C° 0 mm 1 mps 729 mmHg 64%
    22:00 +5°C° 0 mm 1 mps 729 mmHg 62%
    23:00 +5°C° 0 mm 1 mps 729 mmHg 59%

    Tomorrow, 22 January, Tuesday

    Time Temperature Precipitation Wind Pressure Humidity
    00:00 +5°C° 0 mm 1 mps 729 mmHg 56%
    01:00 +5°C° 0 mm 1 mps 729 mmHg 57%
    02:00 +3°C° 0 mm 2 mps 729 mmHg 58%
    03:00 +3°C° 0 mm 2 mps 729 mmHg 59%
    04:00 +3°C° 0.1 mm 2 mps 729 mmHg 64%
    05:00 +4°C° 0.1 mm 1 mps 729 mmHg 70%
    06:00 +3°C° 0.1 mm 1 mps 729 mmHg 75%
    07:00 +4°C° 0.4 mm 1 mps 730 mmHg 77%
    08:00 +4°C° 0.4 mm 1 mps 730 mmHg 78%
    09:00 +4°C° 0.4 mm 1 mps 731 mmHg 80%
    10:00 +4°C° 1.1 mm 1 mps 731 mmHg 83%
    11:00 +4°C° 1.1 mm 1 mps 731 mmHg 85%
    12:00 +4°C° 1.1 mm 1 mps 731 mmHg 88%
    13:00 +4°C° 0.6 mm 1 mps 731 mmHg 91%
    14:00 +4°C° 0.6 mm 1 mps 731 mmHg 94%
    15:00 +4°C° 0.6 mm 1 mps 732 mmHg 97%
    16:00 +3°C° 0.2 mm 1 mps 732 mmHg 97%
    17:00 +3°C° 0.2 mm 1 mps 732 mmHg 97%
    18:00 +2°C° 0.2 mm 1 mps 733 mmHg 97%
    19:00 +2°C° 0.1 mm 1 mps 733 mmHg 97%
    20:00 +1°C° 0.1 mm 2 mps 733 mmHg 97%
    21:00 -1°C° 0.1 mm 2 mps 733 mmHg 97%
    22:00 -1°C° 0.1 mm 2 mps 733 mmHg 97%
    23:00 -1°C° 0.1 mm 2 mps 733 mmHg 97%

    Day after tomorrow, 23 January, Wednesday

    Time Temperature Precipitation Wind Pressure Humidity
    00:00 -1°C° 0.1 mm 2 mps 733 mmHg 97%
    01:00 -1°C° 0 mm 3 mps 733 mmHg 96%
    02:00 -1°C° 0 mm 3 mps 733 mmHg 96%
    03:00 -2°C° 0 mm 3 mps 733 mmHg 96%
    04:00 -2°C° 0 mm 3 mps 733 mmHg 95%
    05:00 -2°C° 0 mm 3 mps 733 mmHg 94%
    06:00 -3°C° 0 mm 4 mps 733 mmHg 94%
    07:00 -3°C° 0 mm 4 mps 733 mmHg 92%
    08:00 -3°C° 0 mm 4 mps 733 mmHg 91%
    09:00 -3°C° 0 mm 4 mps 733 mmHg 90%
    10:00 -2°C° 0 mm 4 mps 733 mmHg 89%
    11:00 -2°C° 0 mm 4 mps 732 mmHg 89%
    12:00 -1°C° 0 mm 5 mps 732 mmHg 88%
    13:00 -1°C° 0 mm 5 mps 732 mmHg 88%
    14:00 -1°C° 0 mm 5 mps 732 mmHg 88%
    15:00 -1°C° 0 mm 5 mps 731 mmHg 87%
    16:00 -2°C° 0 mm 5 mps 732 mmHg 89%
    17:00 -2°C° 0 mm 5 mps 732 mmHg 90%
    18:00 -4°C° 0 mm 5 mps 732 mmHg 91%
    19:00 -4°C° 0 mm 5 mps 732 mmHg 91%
    20:00 -4°C° 0 mm 5 mps 732 mmHg 90%
    21:00 -4°C° 0 mm 5 mps 732 mmHg 89%
    22:00 -2°C° 0 mm 5 mps 732 mmHg 89%
    23:00 -2°C° 0 mm 4 mps 732 mmHg 88%

    24 January, Thursday

    Time Temperature Precipitation Wind Pressure Humidity
    00:00 -2°C° 0 mm 4 mps 732 mmHg 88%
    01:00 -2°C° 0 mm 4 mps 732 mmHg 87%
    02:00 -2°C° 0 mm 4 mps 732 mmHg 87%
    03:00 -2°C° 0 mm 4 mps 731 mmHg 87%
    04:00 -1°C° 0 mm 3 mps 731 mmHg 86%
    05:00 -1°C° 0 mm 3 mps 731 mmHg 86%
    06:00 -1°C° 0 mm 3 mps 730 mmHg 85%
    07:00 -1°C° 0 mm 3 mps 730 mmHg 84%
    08:00 0°C° 0 mm 3 mps 730 mmHg 83%
    09:00 0°C° 0 mm 3 mps 730 mmHg 81%
    10:00 +1°C° 0 mm 3 mps 730 mmHg 80%
    11:00 +2°C° 0 mm 3 mps 729 mmHg 78%
    12:00 +4°C° 0 mm 2 mps 729 mmHg 76%
    13:00 +4°C° 0 mm 2 mps 728 mmHg 77%
    14:00 +4°C° 0 mm 2 mps 728 mmHg 78%
    15:00 +4°C° 0 mm 2 mps 727 mmHg 79%
    16:00 +3°C° 0 mm 2 mps 727 mmHg 80%
    17:00 +3°C° 0 mm 2 mps 728 mmHg 81%
    18:00 +2°C° 0 mm 2 mps 728 mmHg 83%
    19:00 +2°C° 0 mm 2 mps 728 mmHg 80%
    20:00 +2°C° 0 mm 2 mps 728 mmHg 78%
    21:00 +3°C° 0 mm 1 mps 727 mmHg 76%
    22:00 +3°C° 0 mm 1 mps 727 mmHg 76%
    23:00 +3°C° 0 mm 1 mps 727 mmHg 75%

    25 January, Friday

    Time Temperature Precipitation Wind Pressure Humidity
    00:00 +3°C° 0 mm 1 mps 727 mmHg 75%
    01:00 +3°C° 0 mm 1 mps 727 mmHg 73%
    02:00 +3°C° 0 mm 1 mps 727 mmHg 71%
    03:00 +3°C° 0 mm 1 mps 727 mmHg 69%
    04:00 +3°C° 0 mm 1 mps 727 mmHg 68%
    05:00 +3°C° 0 mm 1 mps 726 mmHg 67%
    06:00 +4°C° 0 mm 1 mps 726 mmHg 66%
    07:00 +4°C° 0 mm 1 mps 727 mmHg 65%
    08:00 +4°C° 0 mm 1 mps 727 mmHg 65%
    09:00 +5°C° 0 mm 1 mps 727 mmHg 64%
    10:00 +6°C° 0 mm 1 mps 727 mmHg 62%
    11:00 +6°C° 0 mm 0 mps 727 mmHg 60%
    12:00 +7°C° 0 mm 0 mps 727 mmHg 59%
    13:00 +7°C° 0 mm 0 mps 727 mmHg 61%
    14:00 +7°C° 0 mm 0 mps 727 mmHg 64%
    15:00 +7°C° 0 mm 0 mps 727 mmHg 66%
    16:00 +6°C° 0 mm 0 mps 727 mmHg 69%
    17:00 +5°C° 0 mm 0 mps 727 mmHg 71%
    18:00 +4°C° 0 mm 0 mps 728 mmHg 74%
    19:00 +3°C° 0 mm 0 mps 728 mmHg 74%
    20:00 +3°C° 0 mm 0 mps 728 mmHg 74%
    21:00 +4°C° 0 mm 1 mps 728 mmHg 74%
    22:00 +4°C° 0 mm 1 mps 728 mmHg 73%
    23:00 +4°C° 0 mm 1 mps 728 mmHg 73%

    26 January, Saturday

    Time Temperature Precipitation Wind Pressure Humidity
    00:00 +4°C° 0 mm 1 mps 728 mmHg 72%
    01:00 +3°C° 0 mm 0 mps 728 mmHg 71%
    02:00 +3°C° 0 mm 0 mps 728 mmHg 69%
    03:00 +3°C° 0 mm 0 mps 728 mmHg 68%
    04:00 +3°C° 0 mm 0 mps 727 mmHg 67%
    05:00 +3°C° 0 mm 0 mps 727 mmHg 66%
    06:00 +3°C° 0 mm 0 mps 727 mmHg 65%
    07:00 +5°C° 0 mm 1 mps 727 mmHg 64%
    08:00 +5°C° 0 mm 1 mps 727 mmHg 62%
    09:00 +6°C° 0 mm 1 mps 726 mmHg 61%
    10:00 +7°C° 0 mm 1 mps 726 mmHg 60%
    11:00 +7°C° 0 mm 1 mps 726 mmHg 59%
    12:00 +8°C° 0 mm 1 mps 725 mmHg 58%
    13:00 +8°C° 0 mm 1 mps 725 mmHg 61%
    14:00 +8°C° 0 mm 1 mps 725 mmHg 63%
    15:00 +6°C° 0 mm 2 mps 724 mmHg 66%
    16:00 +6°C° 0 mm 2 mps 724 mmHg 68%
    17:00 +5°C° 0 mm 2 mps 725 mmHg 71%
    18:00 +4°C° 0 mm 2 mps 725 mmHg 73%
    19:00 +4°C° 0 mm 2 mps 725 mmHg 73%
    20:00 +4°C° 0 mm 2 mps 725 mmHg 73%
    21:00 +4°C° 0 mm 2 mps 725 mmHg 74%
    22:00 +5°C° 0 mm 1 mps 725 mmHg 73%
    23:00 +5°C° 0 mm 1 mps 725 mmHg 72%
    Show more